weather.gov     
National Weather Service

Regional Weather Roundup
NWS Homepage
This page is being discontinued on March 12, 2014.
The same data is available at this site. Please update your bookmarks.
Thank you, and we apologize for the inconvenience.
Please send an email to SR-SRH.Webmaster@noaa.gov with any concerns.


Current Version
Previous Version:    01  02  03  04  05  06  07  08  09  10  11  12  13  14  15  16  17  18  19  20  21  22  23  24  25  26  27  28  29  30  
   31  32  33  34  35  36  37  38  39  40  41  42  43  44  45  46  47  48  49  50  51  52  53  54  55  56  57  58  59  60  
[Printable]
730
ASUS46 KLOX 290612
RWRCA

SOUTHERN CALIFORNIA WEATHER ROUNDUP
NATIONAL WEATHER SERVICE OXNARD CALIFORNIA
1100 PM PDT MON JUL 28 2014

NOTE: "FAIR" INDICATES FEW OR NO CLOUDS BELOW 12,000 FEET WITH NO
SIGNIFICANT WEATHER AND/OR OBSTRUCTIONS TO VISIBILITY.

  -  STATIONS PRECEEDED BY AN ASTERISK (*) ARE NOT NWS OR FAA
     STATIONS AND ARE NOT SUBJECT TO NWS AND FAA QUALITY CONTROL.

CAZ041-042-087-290700-
LA AND ORANGE COUNTY COASTAL AREAS


CITY           SKY/WX    TMP DP  RH WIND       PRES   REMARKS
L.A. DOWNTOWN  CLEAR     70  62  76 CALM      30.02S
L.A. AIRPORT   CLEAR     69  63  81 SW8       30.02F
LONG BEACH     CLEAR     71  63  75 W3        30.02S

CITY           SKY/WX    TMP DP  RH WIND       PRES   REMARKS
AVALON           N/A     68 N/A N/A MISG        N/A
FULLERTON      CLEAR     73  62  68 S3        30.02R
*GETTY CENTER    N/A     79  45  29 NW3G9       N/A
HAWTHORNE      CLEAR     70  63  78 SW3       30.02F
*LEO CARRILLO    N/A     72  57  60 W9G22       N/A
*LOS ALAMITOS  FAIR      69  62  78 CALM      30.03R
*REDONDO BEACH   N/A     67  62  84 SW3       30.02S
SANTA ANA      PTCLDY    75  64  68 SW6       30.03R
STA MONICA APT CLEAR     70  63  78 E3        30.02S
*UCLA            N/A     70  63  78 NE5       30.00R

$$

CAZ547-548-048-290700-
LA COUNTY VALLEYS AND INLAND EMPIRE


CITY           SKY/WX    TMP DP  RH WIND       PRES   REMARKS
BURBANK        CLEAR     79  45  29 CALM      30.03R
VAN NUYS       CLEAR     76  52  43 VRB3      30.03S

CITY           SKY/WX    TMP DP  RH WIND       PRES   REMARKS
CORONA AIRPORT CLEAR     76  29  17 CALM      30.04R
CHINO          CLEAR     73  43  33 CALM      30.05S
MARCH AFB      CLEAR     76  30  18 N1        30.08R
*NORTHRIDGE      N/A     75  52  43 W2          N/A
ONTARIO        PTCLDY    78  34  20 CALM      30.05R
*PASADENA        N/A     75  55  50 E1          N/A
RIVERSIDE      CLEAR     78  27  15 CALM      30.05R
SAN BERNARDINO NOT AVBL
*SAN RAFAEL HI   N/A     73  39  28 N10         N/A
*SAUGUS          N/A     73  53  48 S3          N/A
*WHITEMAN AP   NOT AVBL
*WHITTIER HILL   N/A     67  60  78 CALM        N/A
*WOODLAND HILL   N/A     73  54  49 SW5         N/A

$$

CAZ054-055-290700-
LA AND SAN BERNARDINO COUNTY MOUNTAINS


CITY           SKY/WX    TMP DP  RH WIND       PRES   REMARKS
*BIG BEAR AIRP CLEAR     54  48  82 CALM      30.42R
*CHILAO          N/A     70  44  38 N8          N/A
MT WILSON NWS    N/A     70  43  37 MISG        N/A
SANDBERG       MOCLDY    76  38  25 N18       30.25F
*WARM SPRINGS    N/A     75  42  30 W6          N/A

$$

CAZ028-029-059-060-099-290700-
ANTELOPE VALLEY AND SURROUNDING AREAS


CITY           SKY/WX    TMP DP  RH WIND       PRES   REMARKS
LANCASTER      MOCLDY    82  42  24 W7        30.09S
PALMDALE       PTCLDY    78  44  29 S7        30.11S
*POPPY PARK      N/A     83  41  22 W3          N/A

CITY           SKY/WX    TMP DP  RH WIND       PRES   REMARKS
29 PALMS       PTCLDY    87  52  29 W7        30.10S
BARSTOW/DAGGET CLEAR     89  46  22 W13       30.03S
BISHOP         CLOUDY    67  61  81 E3        30.26S
CHINA LAKE     CLOUDY    83  55  38 NW17G25   30.08S
EDWARDS AFB    CLOUDY    85  43  22 NE7       30.07S
MOJAVE         FAIR      84  39  20 CALM      30.12F
NEEDLES        PTCLDY    85  72  65 SW7       29.94F HX  91
VICTORVILLE    CLEAR     81  43  26 W7        30.13R

$$

CAZ039-040-290700-
VENTURA AND SANTA BARBARA COUNTY COAST


CITY           SKY/WX    TMP DP  RH WIND       PRES   REMARKS
CAMARILLO      CLEAR     68  61  78 CALM      30.03S
NWS OXNARD       N/A     66  62  85 CALM      30.03F
OXNARD AIRPORT CLEAR     65  62  90 NW5       30.03S
*POINT MUGU    PTCLDY    69  62  78 NW6       30.03F
SBA APT/GOLETA CLEAR     66  61  84 E5        30.01F
*SANTA BARBARA   N/A     68  61  77 CALM      30.10S
*VENTURA         N/A     67  61  82 E3        30.08S

$$

CAZ044-045-290700-
VENTURA COUNTY VALLEYS


CITY           SKY/WX    TMP DP  RH WIND       PRES   REMARKS
*SIMI VALLEY     N/A     68  61  78 CALM      29.99S
*OJAI            N/A     66  57  74 CALM      29.97F
*FILLMORE        N/A     68  61  78 SW2       29.94S

$$

CAZ053-290700-
VENTURA COUNTY MOUNTAINS


CITY           SKY/WX    TMP DP  RH WIND       PRES   REMARKS
*LOCKWOOD VLY    N/A     61  39  44 MISG        N/A
*ROSE VALLEY     N/A     64  46  52 MISG        N/A

$$

CAZ034-035-036-290700-
CENTRAL COAST AND SANTA YNEZ VALLEY


CITY           SKY/WX    TMP DP  RH WIND       PRES   REMARKS
SAN LUIS OBISP CLEAR     63  60  90 CALM      30.06F
SANTA MARIA    MOCLDY    64  61  88 CALM      30.08S

CITY           SKY/WX    TMP DP  RH WIND       PRES   REMARKS
*CAL POLY SLO    N/A     64  61  88 CALM        N/A
*LOMPOC          N/A     63  57  82 MISG      30.08S
*PISMO BEACH     N/A     64  61  92 SE2       30.07S

$$

CAZ037-038-051-290700-
SAN LUIS OBISPO COUNTY INTERIOR AND CUYAMA VALLEY


CITY           SKY/WX    TMP DP  RH WIND       PRES   REMARKS
*CUYAMA          N/A     76  38  25 SW2       29.97S
PASO ROBLES    CLEAR     75  49  39 NW5       30.05S

$$

CAZ032-033-061-290700-
SOUTHERN DESERTS


CITY           SKY/WX    TMP DP  RH WIND       PRES   REMARKS
BLYTHE           N/A    N/A N/A N/A MISG      29.88S
IMPERIAL       CLEAR     92  56  29 W12       29.86S HX  90
PALM SPRINGS   CLEAR     97  50  20 NW13      29.93R HX  94
THERMAL        CLEAR     96  51  21 NW17      29.85R HX  93

$$

ELSEWHERE ACROSS THE WESTERN UNITED STATES AND MEXICO


CITY           SKY/WX    TMP DP  RH WIND       PRES   REMARKS
DENVER, CO     PTCLDY    65  57  75 SW9       30.29S
GRAND CANYON,  MOCLDY    58  52  80 CALM      30.40S
HONOLULU, HI   PTCLDY    81  66  61 NE9       30.02R
KAHULUI, MAUI  PTCLDY    79  66  65 E13       30.01R
LAKE TAHOE, CA MOCLDY    65  38  36 CALM      30.37S
LAS VEGAS, NV  MOCLDY    83  63  50 S10       30.01F
MAMMOTH LAKES, MOCLDY    55  54  94 CALM      30.45F
MEXICO CITY, M PTCLDY    57  50  77 NE5       30.43F
PHOENIX, AZ    PTCLDY    99  56  23 W7        29.93R HX  97
PORTLAND, OR   CLEAR     76  57  51 NW9       30.03S
RENO, NV       MOCLDY    74  50  42 CALM      30.21F
SALT LAKE CITY CLOUDY    69  62  78 N14       30.23F
SAN DIEGO, CA  PTCLDY    74  66  76 NW7       30.05S
SAN FRANCISCO, PTCLDY    62  57  83 W12       30.05S
SAN JOSE, CA   PTCLDY    65  58  78 W6        30.05S
SEATTLE, WA    CLEAR     73  53  48 NE13      30.09F
TIJUANA, MEX   PTCLDY    72  63  73 CALM      30.07R

$$

STATION/POSITION TIME  TEMP    WIND        PRES    VSBY  WAVE
                       AIR SEA DIR/SP/G                  HT/PER
                 (UTC) (F)     (DEG/KT/KT) (MB)    (MI)  (FT/S)
POINT ARGUELLO B NOT AVBL
WEST SANTA BARBA 0600   63 62  310/ 16/ 17 1016.3F         3/ 8
POINT CONCEPTION NOT AVBL
EAST SANTA BARBA 0600   64     270/ 10     1016.7F
SANTA MONICA BAY 0600   66 67  330/ 14/ 16 1016.3F         3/14




U.S. Dept. of Commerce
NOAA National Weather Service
1325 East West Highway
Silver Spring, MD 20910
E-mail: w-nws.webmaster@noaa.gov
Page last modified: May 16, 2007
NATIONAL WEATHER SERVICE: for Safety, for Work, for Fun - FOR LIFE